Location: Rathdrum
(47.8130°N, 116.8960°W)
Time: 06:07:16
(UTC-07:00)

Amateur Radio Satellites - All Passes

Search period start: 30 July 2016 05:37
Search period end: 31 July 2016 05:37
Location: Rathdrum, 47.8130°N, 116.8960°W

Satellite Date Start Highest point End Downlink Frequencies (MHz)
Time Altitude Azimuth
Cubesat XI-IV 30 Jul 05:37:39 05:38:11 10° 84° (E) 05:38:42 437.490
Cosmos 2491 30 Jul 05:41:24 05:42:09 10° 41° (NE) 05:42:54 435.465 / 435.565
LilacSat-2 30 Jul 05:53:06 05:53:49 10° 87° (E) 05:54:31 437.200
HORYU 2 30 Jul 05:57:41 06:02:12 79° 103° (ESE) 06:06:39 437.375
CUTE-I 30 Jul 05:57:48 06:01:09 17° 89° (E) 06:04:29 437.470
O/OREOS (USA 219) 30 Jul 06:01:00 06:05:31 67° 248° (WSW) 06:10:02 437.305
NOAA 15 30 Jul 06:06:10 06:10:29 25° 93° (E) 06:14:47 137.62
BRITE-PL 30 Jul 06:10:17 06:14:49 36° 97° (E) 06:19:39 437.365/2234.400
SO-50 30 Jul 06:25:31 06:27:55 14° 109° (ESE) 06:30:18 436.795
AO-7 30 Jul 06:26:31 06:33:59 38° 306° (NW) 06:41:24 29.400- 29.500
DOVE 4 30 Jul 06:32:13 06:35:18 16° 87° (E) 06:38:26 437.250
STRAND 1 30 Jul 06:49:25 06:54:30 64° 71° (ENE) 06:59:37 437.568
GOMX 1 30 Jul 06:55:00 06:59:56 46° 99° (E) 07:05:05 467.674
NOAA 18 30 Jul 07:01:24 07:06:51 54° 101° (E) 07:12:14 137.9125
PRISM 30 Jul 07:02:31 07:04:04 12° 58° (ENE) 07:05:37 437.425
RS-15 30 Jul 07:04:32 07:16:04 80° 123° (ESE) 07:28:16 29.354- 29.394
Cubesat XI-IV 30 Jul 07:13:52 07:19:15 71° 103° (ESE) 07:24:33 437.490
LilacSat-2 30 Jul 07:24:44 07:28:38 73° 285° (WNW) 07:32:27 437.200
Cosmos 2491 30 Jul 07:33:54 07:42:07 42° 69° (ENE) 07:50:18 435.465 / 435.565
HORYU 2 30 Jul 07:35:43 07:38:10 15° 302° (WNW) 07:40:35 437.375
CUTE-I 30 Jul 07:36:28 07:41:49 77° 288° (WNW) 07:47:08 437.470
NOAA 15 30 Jul 07:45:26 07:50:32 51° 292° (WNW) 07:55:38 137.62
BRITE-PL 30 Jul 07:48:56 07:53:16 33° 292° (WNW) 07:57:53 437.365/2234.400
CINEMA 3 30 Jul 07:55:16 07:59:34 28° 93° (E) 08:03:48 145.822/145.860
SO-50 30 Jul 08:02:49 08:07:42 85° 127° (SE) 08:12:34 436.795
DOVE 4 30 Jul 08:08:22 08:13:34 82° 285° (WNW) 08:18:52 437.250
HO-68 30 Jul 08:11:44 08:18:18 36° 96° (E) 08:24:48 435.675
CANX-2 30 Jul 08:14:11 08:17:59 32° 96° (E) 08:21:47 2200.000
AO-7 30 Jul 08:21:32 08:24:24 12° 330° (NNW) 08:27:16 29.400- 29.500
CUTE 1.7 + AOD 2 30 Jul 08:26:49 08:30:46 38° 97° (E) 08:34:41 437.475
STRAND 1 30 Jul 08:30:30 08:34:08 19° 270° (W) 08:37:48 437.568
GOMX 1 30 Jul 08:33:31 08:37:49 29° 295° (WNW) 08:42:19 467.674
PRISM 30 Jul 08:34:41 08:38:46 83° 257° (WSW) 08:42:52 437.425
CUBEBUG 2 30 Jul 08:39:19 08:43:02 23° 91° (E) 08:46:39 437.445
Cosmos 2504 30 Jul 08:41:41 08:45:05 13° 70° (ENE) 08:48:28 435.465 / 435.565
NOAA 18 30 Jul 08:42:35 08:47:13 28° 300° (WNW) 08:51:47 137.9125
TIGRISAT 30 Jul 08:52:53 08:55:58 18° 60° (ENE) 08:59:04 435.000
Cubesat XI-IV 30 Jul 08:54:56 08:58:47 21° 302° (WNW) 09:02:39 437.490
SEEDS 30 Jul 08:59:23 09:03:32 61° 101° (E) 09:07:39 437.485
COMPASS 1 30 Jul 09:04:35 09:08:37 48° 99° (E) 09:12:37 437.405
YUBILEINY 30 Jul 09:05:03 09:13:24 51° 88° (E) 09:21:48 435.215
UNISAT 6 30 Jul 09:09:34 09:13:22 25° 64° (ENE) 09:17:13 437.425
CUTE-I 30 Jul 09:18:18 09:21:01 14° 307° (NW) 09:23:44 437.470
RS-15 30 Jul 09:18:32 09:29:46 47° 331° (NNW) 09:41:32 29.354- 29.394
DELFI C3 30 Jul 09:24:21 09:25:37 11° 88° (E) 09:26:53 145.870
AAUSAT CUBESAT 2 30 Jul 09:29:18 09:33:27 72° 103° (ESE) 09:37:32 437.432
Cosmos 2491 30 Jul 09:30:49 09:39:11 52° 271° (W) 09:47:33 435.465 / 435.565
CINEMA 3 30 Jul 09:32:04 09:36:50 43° 291° (WNW) 09:41:32 145.822/145.860
FUNcube-1 30 Jul 09:35:19 09:39:22 33° 95° (E) 09:43:19 145.935
ZACube-1 30 Jul 09:38:11 09:42:23 37° 96° (E) 09:46:27 437.345
SO-50 30 Jul 09:44:55 09:48:47 23° 328° (NNW) 09:52:37 436.795
UWE-3 30 Jul 09:45:31 09:50:08 66° 101° (E) 09:54:35 435.000/436.395/437.385
ANTELSAT 30 Jul 09:46:58 09:51:31 53° 71° (ENE) 09:56:07 437.575/2403.000
DOVE 4 30 Jul 09:47:45 09:50:30 15° 303° (WNW) 09:53:17 437.250
CANX-2 30 Jul 09:50:12 09:53:46 27° 294° (WNW) 09:57:19 2200.000
HO-68 30 Jul 09:59:18 10:06:16 53° 296° (WNW) 10:13:10 435.675
QB50P1 30 Jul 10:00:21 10:02:35 14° 59° (ENE) 10:04:49 145.935-145.965
CUTE 1.7 + AOD 2 30 Jul 10:03:04 10:06:26 23° 295° (WNW) 10:09:47 437.475
POPSAT HIP 1 30 Jul 10:06:44 10:09:20 16° 60° (ENE) 10:11:56 437.405
Oscar 11 30 Jul 10:12:40 10:17:00 84° 104° (ESE) 10:21:19 145.826/435.025
CUBEBUG 2 30 Jul 10:15:21 10:19:53 47° 290° (WNW) 10:24:18 437.445
HUMSAT D 30 Jul 10:21:49 10:25:15 24° 93° (E) 10:28:37 437.325/437.525
QB50P2 30 Jul 10:27:28 10:31:00 26° 65° (ENE) 10:34:34 145.880/145.840
TIGRISAT 30 Jul 10:27:29 10:32:08 69° 258° (WSW) 10:36:52 435.000
Cosmos 2504 30 Jul 10:27:57 10:36:35 58° 91° (E) 10:45:05 435.465 / 435.565
POLYITAN 1 30 Jul 10:30:04 10:33:38 26° 65° (ENE) 10:37:13 437.675
M-CUBED/EXP-1 PRIME 30 Jul 10:33:15 10:37:30 33° 101° (E) 10:41:43 437.505
SEEDS 30 Jul 10:36:15 10:38:48 16° 299° (WNW) 10:41:20 437.485
JAS-2 30 Jul 10:37:08 10:40:25 16° 56° (ENE) 10:43:35 435.910
COMPASS 1 30 Jul 10:40:58 10:43:52 19° 297° (WNW) 10:46:44 437.405
UNISAT 6 30 Jul 10:45:23 10:49:51 44° 262° (W) 10:54:23 437.425
AUBIESAT-1 30 Jul 10:56:04 11:00:32 44° 103° (ESE) 11:04:57 437.475
DELFI C3 30 Jul 10:57:00 11:00:57 70° 285° (WNW) 11:04:52 145.870
YUBILEINY 30 Jul 11:02:06 11:10:22 43° 291° (WNW) 11:18:44 435.215
AAUSAT CUBESAT 2 30 Jul 11:06:20 11:08:23 14° 300° (WNW) 11:10:26 437.432
NANOSAT C BR1 30 Jul 11:09:01 11:13:11 58° 72° (ENE) 11:17:23 145.865
DUCHIFAT 1 30 Jul 11:11:29 11:15:38 58° 72° (ENE) 11:19:51 145.980
BUGSAT 1 30 Jul 11:11:36 11:15:08 28° 66° (ENE) 11:18:41 437.445
FUNcube-1 30 Jul 11:11:39 11:15:33 29° 294° (WNW) 11:19:20 145.935
ZACube-1 30 Jul 11:14:45 11:18:31 27° 295° (WNW) 11:22:12 437.345
UWE-3 30 Jul 11:23:04 11:26:04 17° 300° (WNW) 11:29:01 435.000/436.395/437.385
ANTELSAT 30 Jul 11:25:05 11:28:32 20° 269° (W) 11:32:02 437.575/2403.000
SO-50 30 Jul 11:29:42 11:31:00 11° 351° (N) 11:32:19 436.795
Cosmos 2491 30 Jul 11:33:24 11:33:47 10° 293° (WNW) 11:34:10 435.465 / 435.565
QB50P1 30 Jul 11:33:33 11:37:48 76° 257° (WSW) 11:42:07 145.935-145.965
RS-15 30 Jul 11:35:14 11:46:06 36° 5° (N) 11:57:10 29.354- 29.394
POPSAT HIP 1 30 Jul 11:40:24 11:44:38 65° 258° (WSW) 11:48:55 437.405
HO-68 30 Jul 11:49:02 11:52:26 14° 318° (NW) 11:55:51 435.675
CUBEBUG 1 30 Jul 11:49:08 11:52:48 25° 94° (E) 11:56:27 437.445
Oscar 11 30 Jul 11:50:33 11:52:31 13° 302° (WNW) 11:54:28 145.826/435.025
Oscar 19 30 Jul 11:55:26 11:59:06 20° 58° (ENE) 12:02:46 437.125/150
ESTCUBE 1 30 Jul 11:56:13 12:00:30 42° 98° (E) 12:04:46 437.505/2401.250
HUMSAT D 30 Jul 11:57:08 12:00:58 35° 292° (WNW) 12:04:44 437.325/437.525
AIST 1 30 Jul 11:57:35 11:59:30 13° 83° (E) 12:01:26
VELOX 1 30 Jul 11:57:35 12:01:20 26° 94° (E) 12:05:05 145.980
AO-85 30 Jul 12:00:17 12:03:04 14° 109° (ESE) 12:05:47 145.980
AO-7 30 Jul 12:01:04 12:01:56 10° 26° (NNE) 12:02:50 29.400- 29.500
QB50P2 30 Jul 12:02:44 12:06:40 36° 263° (W) 12:10:39 145.880/145.840
POLYITAN 1 30 Jul 12:05:22 12:09:18 35° 263° (W) 12:13:18 437.675
Gurwin Techsat 1B 30 Jul 12:07:09 12:09:40 14° 53° (NE) 12:12:10 435.225
M-CUBED/EXP-1 PRIME 30 Jul 12:07:41 12:12:00 36° 299° (WNW) 12:16:18 437.505
JAS-2 30 Jul 12:19:08 12:24:56 88° 257° (WSW) 12:30:16 435.910
Cosmos 2504 30 Jul 12:22:11 12:30:22 39° 292° (WNW) 12:38:24 435.465 / 435.565
DX 1 30 Jul 12:29:13 12:33:20 38° 98° (E) 12:37:26 434.975-435.025
AUBIESAT-1 30 Jul 12:30:52 12:34:46 27° 302° (WNW) 12:38:40 437.475
UKube-1 30 Jul 12:35:54 12:39:54 35° 98° (E) 12:43:54 .
AISAT 30 Jul 12:42:24 12:46:54 75° 104° (ESE) 12:51:22 437.250
NANOSAT C BR1 30 Jul 12:46:43 12:49:17 16° 270° (W) 12:51:54 145.865
BUGSAT 1 30 Jul 12:46:45 12:50:26 31° 264° (W) 12:54:11 437.445
DUCHIFAT 1 30 Jul 12:49:09 12:51:43 16° 270° (W) 12:54:19 145.980
50 SAT 30 Jul 12:53:40 12:57:16 72° 287° (WNW) 13:00:50 437.505
SPROUT 30 Jul 13:01:47 13:06:04 58° 101° (E) 13:10:20 437.525
YUBILEINY 30 Jul 13:08:22 13:10:15 11° 318° (NW) 13:12:09 435.215
SO-50 30 Jul 13:11:25 13:13:37 13° 17° (NNE) 13:15:48 436.795
GONETS M04 30 Jul 13:18:48 13:23:12 15° 71° (ENE) 13:27:37
Cosmos 2499 30 Jul 13:24:05 13:26:22 11° 69° (ENE) 13:28:36 435.465 / 435.565
CUBEBUG 1 30 Jul 13:25:07 13:29:12 38° 292° (WNW) 13:33:17 437.445
AIST 1 30 Jul 13:32:18 13:36:31 66° 282° (WNW) 13:40:48
Oscar 19 30 Jul 13:32:50 13:37:55 68° 257° (WSW) 13:43:04 437.125/150
ESTCUBE 1 30 Jul 13:33:30 13:37:07 24° 296° (WNW) 13:40:42 437.505/2401.250
VELOX 1 30 Jul 13:33:47 13:37:54 37° 292° (WNW) 13:41:59 145.980
ITAMSAT 1 30 Jul 13:37:12 13:41:27 26° 61° (ENE) 13:45:43 435.822/435.867
AO-85 30 Jul 13:37:32 13:42:54 81° 126° (SE) 13:47:59 145.980
Gurwin Techsat 1B 30 Jul 13:43:25 13:48:43 73° 72° (ENE) 13:54:03 435.225
TISAT 1 30 Jul 13:43:38 13:47:40 39° 98° (E) 13:51:39 437.305
AO-7 30 Jul 13:45:03 13:52:04 31° 51° (NE) 13:59:05 29.400- 29.500
RS-15 30 Jul 13:49:51 14:01:56 56° 37° (NE) 14:14:01 29.354- 29.394
SWISSCUBE 30 Jul 13:55:57 13:58:13 13° 88° (E) 14:00:30 437.505
DX 1 30 Jul 14:05:45 14:09:22 25° 296° (WNW) 14:12:57 434.975-435.025
JAS-2 30 Jul 14:08:13 14:10:45 13° 272° (W) 14:13:13 435.910
UKube-1 30 Jul 14:12:12 14:15:50 27° 295° (WNW) 14:19:28 .
CUSAT 1 30 Jul 14:14:21 14:17:25 77° 79° (ENE) 14:21:16 437.405
BEESAT 30 Jul 14:16:02 14:19:24 19° 91° (E) 14:22:44 436.000
AISAT 30 Jul 14:20:15 14:22:49 15° 301° (WNW) 14:25:22 437.250
SPROUT 30 Jul 14:38:43 14:41:37 18° 299° (WNW) 14:44:29 437.525
ITUPSAT 1 30 Jul 14:41:06 14:45:21 31° 96° (E) 14:49:33 437.325
SO-50 30 Jul 14:51:09 14:55:30 35° 40° (NE) 14:59:41 436.795
Cosmos 2499 30 Jul 15:09:03 15:17:33 54° 90° (E) 15:25:45 435.465 / 435.565
GONETS M04 30 Jul 15:09:42 15:18:17 69° 94° (E) 15:26:57
DANDE 30 Jul 15:13:25 15:16:02 62° 260° (W) 15:18:58 436.750
ITAMSAT 1 30 Jul 15:15:34 15:20:39 52° 260° (W) 15:25:45 435.822/435.867
AO-85 30 Jul 15:19:36 15:23:55 25° 325° (NW) 15:28:01 145.980
TISAT 1 30 Jul 15:19:42 15:23:07 24° 296° (WNW) 15:26:32 437.305
HORYU 2 30 Jul 15:24:32 15:27:11 16° 58° (ENE) 15:29:50 437.375
Gurwin Techsat 1B 30 Jul 15:25:45 15:29:15 17° 271° (W) 15:32:45 435.225
SWISSCUBE 30 Jul 15:31:51 15:36:39 81° 286° (WNW) 15:41:24 437.505
AO-7 30 Jul 15:35:45 15:44:08 78° 253° (WSW) 15:52:34 29.400- 29.500
BEESAT 30 Jul 15:52:52 15:57:34 58° 289° (WNW) 16:02:13 436.000
NOAA 15 30 Jul 15:55:13 15:55:47 10° 50° (NE) 15:56:21 137.62
MOZHAYETS 4 30 Jul 15:59:45 16:03:41 27° 94° (E) 16:07:34
RS-15 30 Jul 16:02:50 16:14:53 62° 244° (WSW) 16:26:47 29.354- 29.394
ITUPSAT 1 30 Jul 16:18:53 16:23:13 35° 294° (WNW) 16:27:31 437.325
SO-50 30 Jul 16:31:41 16:36:03 41° 241° (WSW) 16:40:17 436.795
KKS-1 30 Jul 16:33:39 16:38:04 51° 100° (E) 16:42:27 437.445
LilacSat-2 30 Jul 16:39:30 16:39:46 10° 58° (ENE) 16:40:02 437.200
BEESAT 3 30 Jul 16:45:04 16:46:05 11° 109° (ESE) 16:47:06 437.485
NOAA 18 30 Jul 16:52:11 16:56:35 25° 59° (ENE) 17:00:59 137.9125
HORYU 2 30 Jul 16:58:42 17:03:11 74° 256° (WSW) 17:07:42 437.375
PHONESAT 2.4 30 Jul 17:00:22 17:02:37 19° 171° (S) 17:04:54 2401.200-2431.200
Cubesat XI-IV 30 Jul 17:00:40 17:05:04 26° 61° (ENE) 17:09:28 437.490
STARS 30 Jul 17:01:41 17:06:03 51° 101° (E) 17:10:22 437.465
Cosmos 2499 30 Jul 17:02:42 17:10:56 41° 291° (WNW) 17:18:52 435.465 / 435.565
HO-68 30 Jul 17:03:27 17:04:41 10° 37° (NE) 17:05:55 435.675
AO-85 30 Jul 17:04:33 17:06:04 11° 349° (NNW) 17:07:34 145.980
GONETS M04 30 Jul 17:08:20 17:15:52 32° 297° (WNW) 17:23:29
SWISSCUBE 30 Jul 17:11:35 17:13:41 13° 305° (NW) 17:15:46 437.505
CUTE-I 30 Jul 17:22:22 17:27:17 38° 65° (ENE) 17:32:14 437.470
BRITE-PL 30 Jul 17:25:13 17:29:14 51° 71° (ENE) 17:33:23 437.365/2234.400
NOAA 15 30 Jul 17:29:22 17:34:28 55° 69° (ENE) 17:39:36 137.62
CUBESAT XI-V 30 Jul 17:29:32 17:33:36 30° 95° (E) 17:37:40 437.345
AO-7 30 Jul 17:32:57 17:38:16 18° 273° (W) 17:43:37 29.400- 29.500
MOZHAYETS 4 30 Jul 17:36:43 17:40:55 36° 292° (WNW) 17:45:05
DOVE 4 30 Jul 17:41:19 17:44:31 20° 60° (ENE) 17:47:52 437.250
PCSat 30 Jul 18:03:51 18:08:20 27° 110° (ESE) 18:12:49 145.827
GOMX 1 30 Jul 18:06:57 18:11:09 64° 73° (ENE) 18:15:37 467.674
LilacSat-2 30 Jul 18:09:30 18:13:24 88° 71° (ENE) 18:17:20 437.200
KKS-1 30 Jul 18:10:58 18:14:18 21° 298° (WNW) 18:17:38 437.445
RS-15 30 Jul 18:18:16 18:24:38 16° 267° (W) 18:31:01 29.354- 29.394
BEESAT 3 30 Jul 18:19:11 18:23:06 88° 303° (WNW) 18:27:05 437.485
NOAA 18 30 Jul 18:31:21 18:36:49 62° 258° (WSW) 18:42:22 137.9125
BEESAT 2 30 Jul 18:33:19 18:37:15 72° 125° (SE) 18:41:15 435.950
PHONESAT 2.4 30 Jul 18:36:15 18:38:34 19° 188° (S) 18:40:50 2401.200-2431.200
STARS 30 Jul 18:38:47 18:42:04 21° 298° (WNW) 18:45:21 437.465
Cubesat XI-IV 30 Jul 18:39:34 18:44:50 53° 259° (W) 18:50:07 437.490
HO-68 30 Jul 18:43:57 18:50:29 40° 60° (ENE) 18:57:04 435.675
AO-85 30 Jul 18:46:57 18:48:43 12° 14° (NNE) 18:50:26 145.980
STRAND 1 30 Jul 18:57:38 19:00:50 16° 89° (E) 19:04:01 437.568
CINEMA 3 30 Jul 18:59:56 19:04:08 34° 66° (ENE) 19:08:31 145.822/145.860
CUTE-I 30 Jul 19:02:30 19:07:22 35° 264° (W) 19:12:17 437.470
BRITE-PL 30 Jul 19:05:33 19:08:09 16° 271° (W) 19:10:47 437.365/2234.400
Cosmos 2499 30 Jul 19:06:26 19:06:51 10° 316° (NW) 19:07:16 435.465 / 435.565
CUBESAT XI-V 30 Jul 19:06:51 19:11:02 34° 293° (WNW) 19:15:11 437.345
CANX-2 30 Jul 19:10:00 19:13:55 36° 69° (ENE) 19:17:49 2200.000
NOAA 15 30 Jul 19:10:30 19:14:35 23° 268° (W) 19:18:43 137.62
YUBILEINY 30 Jul 19:10:45 19:18:23 31° 63° (ENE) 19:25:56 435.215
UWE-3 30 Jul 19:12:15 19:14:05 12° 56° (NE) 19:15:56 435.000/436.395/437.385
DOVE 4 30 Jul 19:17:28 19:21:46 56° 260° (W) 19:26:24 437.250
CUTE 1.7 + AOD 2 30 Jul 19:22:29 19:26:30 42° 70° (ENE) 19:30:32 437.475
AIST 2 30 Jul 19:31:30 19:34:10 17° 112° (ESE) 19:36:51 435.215
Oscar 11 30 Jul 19:37:09 19:39:09 13° 58° (ENE) 19:41:09 145.826/435.025
CUBEBUG 2 30 Jul 19:40:16 19:44:16 29° 65° (ENE) 19:48:21 437.445
ISS 30 Jul 19:43:06 19:45:17 17° 137° (SE) 19:47:27 145.825
PCSat 30 Jul 19:46:04 19:51:24 56° 309° (NW) 19:56:46 145.827
GOMX 1 30 Jul 19:47:29 19:49:50 14° 273° (W) 19:52:13 467.674
SEEDS 30 Jul 19:54:00 19:58:11 64° 74° (ENE) 20:02:21 437.485
COMPASS 1 30 Jul 19:58:18 20:02:20 51° 71° (ENE) 20:06:23 437.405
BEESAT 3 30 Jul 19:58:44 20:01:22 17° 328° (NNW) 20:04:01 437.485
BEESAT 2 30 Jul 20:12:33 20:15:31 20° 325° (NW) 20:18:31 435.950
AUBIESAT-1 30 Jul 20:13:21 20:15:19 13° 50° (NE) 20:17:20 437.475
DELFI C3 30 Jul 20:13:52 20:15:26 12° 59° (ENE) 20:17:00 145.870
PRISM 30 Jul 20:15:35 20:16:08 10° 88° (E) 20:16:40 437.425
O/OREOS (USA 219) 30 Jul 20:16:25 20:20:51 74° 114° (ESE) 20:25:21 437.305
Cosmos 2504 30 Jul 20:17:30 20:24:06 26° 60° (ENE) 20:30:18 435.465 / 435.565
AAUSAT CUBESAT 2 30 Jul 20:22:25 20:26:33 73° 75° (ENE) 20:30:42 437.432
AO-85 30 Jul 20:26:37 20:30:42 30° 38° (NE) 20:34:29 145.980
HO-68 30 Jul 20:31:08 20:38:04 50° 260° (W) 20:45:04 435.675
FUNcube-1 30 Jul 20:33:34 20:37:48 40° 69° (ENE) 20:42:06 145.935
STRAND 1 30 Jul 20:35:27 20:40:35 73° 288° (WNW) 20:45:39 437.568
ZACube-1 30 Jul 20:36:41 20:41:03 45° 70° (ENE) 20:45:26 437.345
CINEMA 3 30 Jul 20:37:09 20:41:16 32° 266° (W) 20:45:36 145.822/145.860
Cosmos 2491 30 Jul 20:39:47 20:47:42 41° 86° (E) 20:55:38 435.465 / 435.565
UWE-3 30 Jul 20:45:07 20:49:45 79° 75° (ENE) 20:54:28 435.000/436.395/437.385
CANX-2 30 Jul 20:46:20 20:49:51 25° 266° (W) 20:53:23 2200.000
CUTE 1.7 + AOD 2 30 Jul 20:59:16 21:02:32 21° 268° (W) 21:05:48 437.475
YUBILEINY 30 Jul 21:07:13 21:16:02 72° 266° (W) 21:24:45 435.215
AIST 2 30 Jul 21:08:07 21:12:12 63° 310° (NW) 21:16:20 435.215
Oscar 11 30 Jul 21:10:18 21:14:39 84° 254° (WSW) 21:19:02 145.826/435.025
HUMSAT D 30 Jul 21:16:05 21:19:44 28° 66° (ENE) 21:23:23 437.325/437.525
CUBEBUG 2 30 Jul 21:16:24 21:20:45 38° 264° (W) 21:25:13 437.445
ISS 30 Jul 21:18:03 21:21:19 85° 152° (SSE) 21:24:35 145.825
M-CUBED/EXP-1 PRIME 30 Jul 21:22:37 21:26:31 63° 67° (ENE) 21:30:49 437.505
SEEDS 30 Jul 21:32:07 21:34:19 14° 271° (W) 21:36:31 437.485
PCSat 30 Jul 21:32:33 21:36:00 17° 332° (NNW) 21:39:28 145.827
COMPASS 1 30 Jul 21:35:27 21:38:12 17° 269° (W) 21:40:57 437.405
AUBIESAT-1 30 Jul 21:45:02 21:49:02 88° 64° (ENE) 21:53:23 437.475
DELFI C3 30 Jul 21:45:45 21:49:43 77° 258° (WSW) 21:53:43 145.870
PRISM 30 Jul 21:47:54 21:52:01 83° 286° (WNW) 21:56:08 437.425
O/OREOS (USA 219) 30 Jul 21:57:47 22:00:49 17° 314° (NW) 22:03:51 437.305
AAUSAT CUBESAT 2 30 Jul 22:01:00 22:02:33 12° 272° (W) 22:04:06 437.432
AO-85 30 Jul 22:07:06 22:11:19 43° 241° (WSW) 22:15:12 145.980
AISAT 30 Jul 22:09:09 22:11:23 14° 57° (ENE) 22:13:36 437.250
Cosmos 2504 30 Jul 22:10:21 22:18:31 78° 265° (W) 22:26:02 435.465 / 435.565
FUNcube-1 30 Jul 22:10:22 22:14:10 26° 267° (W) 22:18:00 145.935
ZACube-1 30 Jul 22:13:55 22:17:32 23° 268° (W) 22:21:12 437.345
TIGRISAT 30 Jul 22:16:27 22:19:55 20° 91° (E) 22:23:18 435.000
STRAND 1 30 Jul 22:16:41 22:18:53 13° 307° (NW) 22:21:06 437.568
UWE-3 30 Jul 22:24:31 22:26:47 13° 273° (W) 22:29:06 435.000/436.395/437.385
UNISAT 6 30 Jul 22:33:48 22:37:56 31° 95° (E) 22:41:57 437.425
Cosmos 2491 30 Jul 22:35:58 22:44:22 52° 288° (WNW) 22:52:51 435.465 / 435.565
CUBEBUG 1 30 Jul 22:48:17 22:52:06 31° 67° (ENE) 22:55:57 437.445
AIST 2 30 Jul 22:49:07 22:51:31 15° 332° (NNW) 22:53:56 435.215
HUMSAT D 30 Jul 22:51:21 22:55:16 33° 264° (W) 22:59:11 437.325/437.525
ISS 30 Jul 22:54:51 22:57:58 41° 355° (N) 23:01:05 145.825
VELOX 1 30 Jul 22:57:59 23:01:58 35° 67° (ENE) 23:05:59 145.980
ESTCUBE 1 30 Jul 22:58:46 23:03:11 58° 72° (ENE) 23:07:36 437.505/2401.250
M-CUBED/EXP-1 PRIME 30 Jul 22:59:20 23:01:35 14° 267° (W) 23:03:54 437.505
YUBILEINY 30 Jul 23:06:18 23:11:09 16° 288° (WNW) 23:15:58 435.215
ANTELSAT 30 Jul 23:11:49 23:16:28 72° 102° (ESE) 23:20:59 437.575/2403.000
QB50P1 30 Jul 23:16:15 23:18:35 14° 89° (E) 23:20:54 145.935-145.965
POPSAT HIP 1 30 Jul 23:22:48 23:25:32 16° 90° (E) 23:28:16 437.405
GONETS M04 30 Jul 23:22:55 23:23:55 10° 41° (NE) 23:24:55
AUBIESAT-1 30 Jul 23:23:42 23:24:13 10° 269° (W) 23:24:45 437.475
PRISM 30 Jul 23:25:50 23:26:38 10° 304° (WNW) 23:27:26 437.425
DX 1 30 Jul 23:27:46 23:31:57 51° 70° (ENE) 23:36:11 434.975-435.025
UKube-1 30 Jul 23:33:26 23:37:33 47° 70° (ENE) 23:41:42 .
50 SAT 30 Jul 23:34:01 23:37:40 83° 77° (ENE) 23:41:19 437.505
AIST 1 30 Jul 23:35:36 23:39:46 42° 75° (ENE) 23:43:55
AISAT 30 Jul 23:42:50 23:47:13 82° 254° (WSW) 23:51:41 437.250
QB50P2 30 Jul 23:44:07 23:47:51 28° 95° (E) 23:51:33 145.880/145.840
POLYITAN 1 30 Jul 23:46:44 23:50:30 29° 95° (E) 23:54:13 437.675
TIGRISAT 30 Jul 23:52:25 23:56:54 50° 290° (WNW) 00:01:16 435.000
SPROUT 30 Jul 23:58:17 00:02:32 67° 73° (ENE) 00:06:50 437.525
Cosmos 2504 31 Jul 00:05:52 00:10:20 16° 287° (WNW) 00:14:41 435.465 / 435.565
UNISAT 6 31 Jul 00:10:29 00:14:38 33° 294° (WNW) 00:18:40 437.425
CUBEBUG 1 31 Jul 00:24:36 00:28:23 29° 265° (W) 00:32:12 437.445
BUGSAT 1 31 Jul 00:24:45 00:28:31 29° 95° (E) 00:32:14 437.445
NANOSAT C BR1 31 Jul 00:25:30 00:29:47 67° 102° (ESE) 00:34:02 145.865
DUCHIFAT 1 31 Jul 00:27:40 00:31:56 66° 102° (ESE) 00:36:10 145.980
ISS 31 Jul 00:31:32 00:34:45 54° 15° (NNE) 00:37:58 145.825
VELOX 1 31 Jul 00:34:45 00:38:30 27° 265° (W) 00:42:16 145.980
ESTCUBE 1 31 Jul 00:37:27 00:40:22 17° 270° (W) 00:43:18 437.505/2401.250
TISAT 1 31 Jul 00:38:17 00:42:18 45° 70° (ENE) 00:46:22 437.305
Cosmos 2491 31 Jul 00:40:11 00:43:49 13° 314° (NW) 00:47:29 435.465 / 435.565
ANTELSAT 31 Jul 00:49:46 00:52:37 16° 301° (WNW) 00:55:25 437.575/2403.000
QB50P1 31 Jul 00:50:32 00:54:49 65° 287° (WNW) 00:59:02 145.935-145.965
BEESAT 3 31 Jul 00:56:07 00:59:28 25° 39° (NE) 01:02:48 437.485
Cosmos 2499 31 Jul 00:57:17 01:03:13 23° 58° (ENE) 01:08:50 435.465 / 435.565
POPSAT HIP 1 31 Jul 00:57:27 01:01:41 56° 289° (WNW) 01:05:52 437.405
PCSat 31 Jul 01:04:38 01:07:47 15° 25° (NNE) 01:10:57 145.827
SWISSCUBE 31 Jul 01:05:00 01:08:49 24° 62° (ENE) 01:12:38 437.505
DX 1 31 Jul 01:05:26 01:08:26 18° 268° (W) 01:11:28 434.975-435.025
JAS-2 31 Jul 01:08:22 01:13:38 58° 101° (ESE) 01:19:23 435.910
UKube-1 31 Jul 01:10:42 01:13:51 20° 268° (W) 01:17:00 .
BEESAT 2 31 Jul 01:10:56 01:14:07 22° 36° (NE) 01:17:17 435.950
AIST 1 31 Jul 01:13:51 01:17:05 21° 273° (W) 01:20:19
GONETS M04 31 Jul 01:15:38 01:23:53 42° 68° (ENE) 01:32:07
QB50P2 31 Jul 01:19:50 01:23:40 32° 293° (WNW) 01:27:28 145.880/145.840
POLYITAN 1 31 Jul 01:22:28 01:26:18 32° 293° (WNW) 01:30:05 437.675
BEESAT 31 Jul 01:25:20 01:29:35 32° 65° (ENE) 01:33:49 436.000
SPROUT 31 Jul 01:36:44 01:38:57 14° 271° (W) 01:41:10 437.525
Oscar 19 31 Jul 01:41:00 01:45:39 33° 96° (E) 01:50:19 437.125/150
ITUPSAT 1 31 Jul 01:50:51 01:55:31 53° 70° (ENE) 02:00:11 437.325
Gurwin Techsat 1B 31 Jul 01:56:48 02:00:55 22° 91° (E) 02:05:01 435.225
BUGSAT 1 31 Jul 02:00:05 02:03:52 31° 293° (WNW) 02:07:37 437.445
NANOSAT C BR1 31 Jul 02:02:30 02:05:01 15° 300° (WNW) 02:07:32 145.865
KKS-1 31 Jul 02:02:31 02:03:23 11° 54° (NE) 02:04:17 437.445
DUCHIFAT 1 31 Jul 02:04:36 02:07:08 16° 300° (WNW) 02:09:40 145.980
ISS 31 Jul 02:08:03 02:11:08 39° 214° (SW) 02:14:12 145.825
AIST 2 31 Jul 02:11:05 02:12:20 11° 21° (NNE) 02:13:33 435.215
TISAT 1 31 Jul 02:15:07 02:18:11 19° 268° (W) 02:21:17 437.305
STARS 31 Jul 02:30:03 02:30:09 10° 54° (NE) 02:30:14 437.465
BEESAT 3 31 Jul 02:33:31 02:37:21 47° 238° (WSW) 02:41:09 437.485
SWISSCUBE 31 Jul 02:41:43 02:46:21 48° 260° (W) 02:51:00 437.505
PCSat 31 Jul 02:47:16 02:52:32 49° 49° (NE) 02:57:47 145.827
BEESAT 2 31 Jul 02:48:20 02:52:18 61° 236° (SW) 02:56:15 435.950
Cosmos 2499 31 Jul 02:49:39 02:57:31 84° 264° (W) 03:04:47 435.465 / 435.565
JAS-2 31 Jul 02:54:18 02:58:28 24° 299° (WNW) 03:02:52 435.910
BEESAT 31 Jul 03:02:58 03:07:19 34° 263° (W) 03:11:42 436.000
MOZHAYETS 4 31 Jul 03:04:37 03:08:55 39° 68° (ENE) 03:13:13
GONETS M04 31 Jul 03:12:31 03:20:56 53° 271° (W) 03:29:23
Oscar 19 31 Jul 03:20:15 03:25:02 38° 294° (WNW) 03:29:48 437.125/150
CUSAT 1 31 Jul 03:21:59 03:25:26 58° 100° (E) 03:28:16 437.405
ITAMSAT 1 31 Jul 03:24:47 03:29:44 43° 98° (E) 03:34:38 435.822/435.867
ITUPSAT 1 31 Jul 03:30:04 03:33:40 21° 268° (W) 03:37:17 437.325
AO-7 31 Jul 03:34:01 03:41:05 29° 93° (E) 03:48:05 29.400- 29.500
KKS-1 31 Jul 03:34:43 03:39:08 72° 73° (ENE) 03:43:37 437.445
Gurwin Techsat 1B 31 Jul 03:36:01 03:41:15 58° 290° (WNW) 03:46:27 435.225
AIST 2 31 Jul 03:48:05 03:52:00 36° 44° (NE) 03:55:52 435.215
STARS 31 Jul 04:01:17 04:05:40 69° 72° (ENE) 04:10:05 437.465
RS-15 31 Jul 04:23:52 04:30:20 17° 94° (E) 04:36:56 29.354- 29.394
DANDE 31 Jul 04:25:11 04:29:58 74° 281° (WNW) 04:33:34 436.750
PCSat 31 Jul 04:31:00 04:35:46 32° 249° (WSW) 04:40:29 145.827
CUBESAT XI-V 31 Jul 04:35:56 04:40:17 42° 69° (ENE) 04:44:37 437.345
MOZHAYETS 4 31 Jul 04:42:18 04:46:11 26° 266° (W) 04:50:05
O/OREOS (USA 219) 31 Jul 04:43:54 04:48:03 34° 55° (NE) 04:52:12 437.305
Cosmos 2499 31 Jul 04:44:40 04:49:16 17° 286° (WNW) 04:53:43 435.465 / 435.565
HORYU 2 31 Jul 04:47:17 04:50:08 16° 90° (E) 04:52:58 437.375
ITAMSAT 1 31 Jul 05:04:34 05:09:03 30° 297° (WNW) 05:13:31 435.822/435.867
KKS-1 31 Jul 05:13:58 05:16:13 14° 271° (W) 05:18:30 437.445
GONETS M04 31 Jul 05:14:27 05:15:32 10° 293° (WNW) 05:16:38
Gurwin Techsat 1B 31 Jul 05:18:52 05:20:08 11° 310° (NW) 05:21:24 435.225
BRITE-PL 31 Jul 05:26:20 05:29:17 15° 89° (E) 05:32:20 437.365/2234.400
AIST 2 31 Jul 05:26:42 05:30:25 32° 242° (WSW) 05:34:08 435.215
